Regional Weather Roundup
Issued by NWS Goodland, KS

Home | Current Version | Previous Version | Text Only | Print | Product List | Glossary Off
Versions: 1 2 3 4 5 6 7 8 9 10 11 12 13 14 15 16 17 18 19 20 21 22 23 24 25 26 27 28 29 30 31 32 33 34 35 36 37 38 39 40 41 42 43 44 45 46 47 48 49 50

000
ASUS43 KGLD 231008
RWRGLD

GOODLAND FORECAST AREA HOURLY WEATHER ROUNDUP
NATIONAL WEATHER SERVICE GOODLAND KS
400 AM MDT WED APR 23 2014

...OFFICIAL OBSERVATIONS...

CITY           SKY/WX    TMP DP  RH WIND       PRES   REMARKS
GOODLAND KS    MOCLDY    57  43  59 S18       29.64F
HILL CITY KS   MOCLDY    58  39  49 S13G21    29.71F
IMPERIAL NEB   CLOUDY    59  45  59 S17G25    29.57F
MCCOOK NEB     MOCLDY    59  42  53 S28G37    29.62F
AKRON CO       CLOUDY    60  38  43 SW17      29.57F
BURLINGTON CO  CLOUDY    61  41  47 S30G37    29.65S
LIMON CO       CLOUDY    55  37  50 S15       29.67R
$$

...UNOFFICIAL OBSERVATIONS...

CITY           SKY/WX    TMP DP  RH WIND       PRES   REMARKS
COLBY KS       CLEAR     59  50  72 S20G31    29.66F
LENORA KS        N/A     56  32  40 S22         N/A
LEOTI KS         N/A     60  32  34 S15         N/A
NORTON KS      CLEAR     54  34  47 SE13G21   29.69F
OBERLIN KS     FAIR      55  41  58 S13G23    29.65S
SHARON SPRINGS   N/A     61  43  50 S21G29      N/A
ST FRANCIS KS  MOCLDY    59  41  51 S24       29.58
TRIBUNE KS     CLOUDY    63  41  45 S26G32    29.70
WAKEENEY KS      N/A     58  37  44 MISG        N/A
KIT CARSON CO    N/A     59  43  55 MISG        N/A
WRAY CO        FAIR      59  43  55 S16G23    29.58F
$$



USA.gov is the U.S. government's official web portal to all federal, state and local government web resources and services.